Leesburg, VA

3:27 PM EDT on July 21, 2019 (GMT -0400)
Leesburg Executive

Weather History for KJYO - April, 2019

Change the Weather History Date:

Sunday, April 14, 2019

  Actual Average (KIAD) Record (KIAD)
Temperature  
Mean Temperature 63 °F -  
Max Temperature 73 °F 65 °F 87 °F (1960)
Min Temperature 53 °F 39 °F 20 °F (1975)
Degree Days  
Heating Degree Days 2    
Growing Degree Days 13 (Base 50)    
Moisture  
Dew Point 62 °F    
Average Humidity 92    
Maximum Humidity 100    
Minimum Humidity 73    
Precipitation  
Precipitation 0.00 in - - ()
Sea Level Pressure  
Sea Level Pressure 29.77 in    
Wind  
Wind Speed 6 mph (South)    
Max Wind Speed 21 mph    
Max Gust Speed 29 mph    
Visibility 9 miles    
Events      
Averages and records for this station are not official NWS values.
T = Trace of Precipitation, MM = Missing Value Source: NWS Daily Summary

Daily Weather History Graph

Daily Weather History Graph

Search for Another Location

Airport or City:

Astronomy

Apr. 14, 2019 Rise Set
Actual Time 6:35 AM EDT 7:46 PM EDT
Civil Twilight 6:07 AM EDT 8:13 PM EDT
Nautical Twilight 5:34 AM EDT 8:46 PM EDT
Astronomical Twilight 5:00 AM EDT 9:21 PM EDT
Moon 2:18 PM EDT (4/14) 3:52 AM EDT (4/14)
Length of Visible Light 14h 06m
Length of Day
13h 11m
Waxing Gibbous, 71% of the Moon is Illuminated
Apr 14
Waxing Gibbous
Apr 19
Full
Apr 26
Last Quarter
May 4
New
May 11
First Quarter

Hourly Weather History & Observations

Time (EDT) Temp. Dew Point Humidity Pressure Visibility Wind Dir Wind Speed Gust Speed Precip Events Conditions
12:15 AM 62.6 °F 60.8 °F 94% 30.01 in 10.0 mi SSE 4.6 mph - N/A   Clear
12:30 AM 62.6 °F 60.8 °F 94% 30.01 in 10.0 mi SSE 5.8 mph - N/A   Clear
12:55 AM 62.6 °F 60.8 °F 94% 30.01 in 10.0 mi SSE 6.9 mph - N/A   Clear
1:15 AM 60.8 °F 60.8 °F 100% 30.00 in 10.0 mi SSE 5.8 mph - N/A   Clear
1:35 AM 59.0 °F 59.0 °F 100% 29.99 in 10.0 mi Calm Calm - N/A   Clear
1:55 AM 59.0 °F 59.0 °F 100% 29.98 in 10.0 mi Calm Calm - N/A   Clear
2:15 AM 57.2 °F 57.2 °F 100% 29.97 in 10.0 mi Calm Calm - N/A   Clear
2:35 AM 55.4 °F 55.4 °F 100% 29.97 in 10.0 mi South 3.5 mph - N/A   Scattered Clouds
2:55 AM 57.2 °F 57.2 °F 100% 29.97 in 10.0 mi SSW 4.6 mph - N/A   Overcast
3:15 AM 55.4 °F 55.4 °F 100% 29.96 in 10.0 mi Calm Calm - N/A   Overcast
3:35 AM 55.4 °F 55.4 °F 100% 29.97 in 10.0 mi Calm Calm - N/A   Overcast
3:55 AM 55.4 °F 55.4 °F 100% 29.96 in 7.0 mi Calm Calm - N/A   Overcast
4:15 AM 55.4 °F 55.4 °F 100% 29.95 in 0.8 mi Calm Calm - N/A   Overcast
4:35 AM 55.4 °F 55.4 °F 100% 29.96 in 0.5 mi Calm Calm - N/A   Overcast
4:55 AM 55.4 °F 55.4 °F 100% 29.95 in 1.2 mi Calm Calm - N/A   Overcast
5:15 AM 55.4 °F 55.4 °F 100% 29.95 in 4.0 mi Calm Calm - N/A   Overcast
5:35 AM 55.4 °F 55.4 °F 100% 29.94 in 4.0 mi Calm Calm - N/A   Mostly Cloudy
5:55 AM 55.4 °F 55.4 °F 100% 29.93 in 7.0 mi Calm Calm - N/A   Mostly Cloudy
6:15 AM 55.4 °F 55.4 °F 100% 29.93 in 7.0 mi Calm Calm - N/A   Mostly Cloudy
6:35 AM 53.6 °F 53.6 °F 100% 29.94 in 5.0 mi WSW 3.5 mph - N/A   Mostly Cloudy
6:55 AM 55.4 °F 55.4 °F 100% 29.94 in 7.0 mi Calm Calm - N/A   Overcast
7:15 AM 55.4 °F 55.4 °F 100% 29.94 in 7.0 mi SSE 3.5 mph - N/A   Overcast
7:35 AM 57.2 °F 57.2 °F 100% 29.94 in 7.0 mi South 4.6 mph - N/A   Overcast
7:55 AM 59.0 °F 59.0 °F 100% 29.92 in 3.0 mi SSE 8.1 mph - N/A   Overcast
8:15 AM 59.0 °F 59.0 °F 100% 29.92 in 3.0 mi SSE 8.1 mph - N/A   Overcast
8:55 AM 59.0 °F 59.0 °F 100% 29.88 in 4.0 mi SSE 9.2 mph - N/A   Overcast
9:15 AM 60.8 °F 60.8 °F 100% 29.88 in 10.0 mi South 10.4 mph - N/A   Overcast
9:35 AM 60.8 °F 60.8 °F 100% 29.87 in 10.0 mi South 9.2 mph - N/A   Overcast
9:55 AM 60.8 °F 60.8 °F 100% 29.87 in 10.0 mi South 6.9 mph - N/A   Overcast
10:15 AM 60.8 °F 60.8 °F 100% 29.86 in 10.0 mi South 8.1 mph - N/A   Overcast
10:35 AM 62.6 °F 62.6 °F 100% 29.85 in 10.0 mi South 11.5 mph - N/A   Overcast
10:55 AM 62.6 °F 62.6 °F 100% 29.84 in 5.0 mi South 11.5 mph 19.6 mph N/A   Overcast
11:15 AM 62.6 °F 62.6 °F 100% 29.84 in 10.0 mi South 11.5 mph - N/A   Overcast
11:35 AM 64.4 °F 62.6 °F 94% 29.84 in 10.0 mi South 10.4 mph - N/A   Overcast
11:55 AM 64.4 °F 62.6 °F 94% 29.82 in 10.0 mi South 11.5 mph - N/A   Overcast
12:15 PM 64.4 °F 64.4 °F 100% 29.82 in 10.0 mi South 10.4 mph 17.3 mph N/A   Overcast
12:35 PM 64.4 °F 64.4 °F 100% 29.82 in 10.0 mi SSW 11.5 mph - N/A   Overcast
12:55 PM 66.2 °F 64.4 °F 94% 29.80 in 10.0 mi South 11.5 mph 16.1 mph N/A   Overcast
1:15 PM 68.0 °F 64.4 °F 88% 29.80 in 10.0 mi South 10.4 mph - N/A   Overcast
1:35 PM 69.8 °F 64.4 °F 83% 29.79 in 10.0 mi South 12.7 mph - N/A   Overcast
1:55 PM 69.8 °F 64.4 °F 83% 29.78 in 10.0 mi South 11.5 mph 16.1 mph N/A   Overcast
2:15 PM 69.8 °F 64.4 °F 83% 29.77 in 10.0 mi SSW 9.2 mph - N/A   Mostly Cloudy
2:35 PM 69.8 °F 64.4 °F 83% 29.76 in 10.0 mi SSW 8.1 mph - N/A   Mostly Cloudy
2:55 PM 71.6 °F 64.4 °F 78% 29.72 in 10.0 mi South 9.2 mph - N/A   Overcast
3:15 PM 71.6 °F 64.4 °F 78% 29.71 in 10.0 mi South 12.7 mph - N/A   Mostly Cloudy
3:35 PM 71.6 °F 64.4 °F 78% 29.70 in 10.0 mi South 17.3 mph 20.7 mph N/A   Mostly Cloudy
3:55 PM 73.4 °F 64.4 °F 73% 29.69 in 10.0 mi South 12.7 mph 21.9 mph N/A   Overcast
4:15 PM 73.4 °F 64.4 °F 73% 29.66 in 10.0 mi South 10.4 mph - N/A   Mostly Cloudy
4:35 PM 73.4 °F 64.4 °F 73% 29.66 in 10.0 mi South 12.7 mph 19.6 mph N/A   Overcast
4:55 PM 73.4 °F 64.4 °F 73% 29.63 in 10.0 mi South 13.8 mph 18.4 mph N/A   Overcast
5:15 PM 73.4 °F 64.4 °F 73% 29.63 in 10.0 mi South 15.0 mph 18.4 mph N/A   Overcast
5:35 PM 73.4 °F 64.4 °F 73% 29.61 in 10.0 mi SE 11.5 mph - N/A   Overcast
5:55 PM 73.4 °F 64.4 °F 73% 29.59 in 10.0 mi SSE 20.7 mph 26.5 mph N/A   Mostly Cloudy
6:15 PM 73.4 °F 64.4 °F 73% 29.60 in 10.0 mi South 8.1 mph 21.9 mph N/A   Overcast
6:35 PM 71.6 °F 66.2 °F 83% 29.60 in 10.0 mi WSW 9.2 mph 26.5 mph N/A   Overcast
6:55 PM 73.4 °F 66.2 °F 78% 29.58 in 10.0 mi South 12.7 mph - N/A   Overcast
7:15 PM 71.6 °F 66.2 °F 83% 29.56 in 10.0 mi SSE 8.1 mph - N/A   Overcast
7:35 PM 69.8 °F 68.0 °F 94% 29.54 in 5.0 mi SE 12.7 mph 16.1 mph N/A   Overcast
7:55 PM 68.0 °F 68.0 °F 100% 29.53 in 4.0 mi South 8.1 mph - N/A   Overcast
8:15 PM 68.0 °F 68.0 °F 100% 29.52 in 10.0 mi South 3.5 mph 18.4 mph N/A   Overcast
8:35 PM 66.2 °F 66.2 °F 100% 29.52 in 10.0 mi West 12.7 mph 17.3 mph N/A   Overcast
8:55 PM 68.0 °F 66.2 °F 94% 29.50 in 10.0 mi South 10.4 mph - N/A   Mostly Cloudy
9:15 PM 69.8 °F 66.2 °F 88% 29.49 in 10.0 mi South 12.7 mph 18.4 mph N/A   Mostly Cloudy
9:35 PM 69.8 °F 66.2 °F 88% 29.49 in 10.0 mi South 12.7 mph 20.7 mph N/A   Overcast
9:55 PM 71.6 °F 66.2 °F 83% 29.47 in 10.0 mi South 16.1 mph 27.6 mph N/A   Overcast
10:15 PM 71.6 °F 66.2 °F 83% 29.47 in 10.0 mi South 16.1 mph 25.3 mph N/A   Overcast
10:35 PM 71.6 °F 68.0 °F 88% 29.45 in 10.0 mi South 15.0 mph 27.6 mph N/A   Overcast
10:55 PM 71.6 °F 68.0 °F 88% 29.44 in 10.0 mi South 16.1 mph 28.8 mph N/A   Overcast
11:15 PM 69.8 °F 68.0 °F 94% 29.45 in 10.0 mi SSW 13.8 mph 28.8 mph N/A   Overcast
11:35 PM 71.6 °F 68.0 °F 88% 29.44 in 10.0 mi SSW 16.1 mph 28.8 mph N/A   Mostly Cloudy
11:55 PM 71.6 °F 68.0 °F 88% 29.42 in 10.0 mi South 11.5 mph 26.5 mph N/A   Mostly Cloudy